Location: Koszewko
(53.2876°N, 14.9061°E)
Time: 02:00:13
(UTC+00:00)

Cosmos 1992 Rocket - Pass Details

Date: 03 March 2021
Orbit: 759 x 765 km, 74.0° (Epoch: 11 April)

Event Time Altitude Azimuth Distance (km) Brightness Sun altitude
Rises 17:49:10 0° 190° (S) 3,219 7.3 -10.8°
Reaches altitude 10° 17:51:34 10° 186° (S) 2,297 6.5 -11.1°
Maximum altitude 17:56:39 57° 109° (ESE) 904 4.0 -11.9°
Drops below altitude 10° 18:01:46 10° 32° (NNE) 2,310 6.2 -12.6°
Sets 18:04:11 0° 29° (NNE) 3,240 7.0 -13.0°
